Flag for USA

Past Weather in Louisville Convention Historical Marker, Kentucky, USA — Yesterday and Last 2 Weeks

Now
52 °F

Mostly cloudy.


Feels Like: 49 °F
Forecast: 54 / 48 °F
Wind: 9 mph from East

Location: Standiford Field
Current Time: Oct 24, 2020 at 11:15:12 pm
Latest Report: Oct 24, 2020 at 9:56 pm
Visibility: 10 mi
Pressure30.09 "Hg
Humidity: 64%
Dew Point: 40 °F
Location of Louisville Convention Historical MarkerLocation

Past Weather in Louisville Convention Historical Marker — Graph

°F

Louisville Convention Historical Marker Temperature Yesterday

Maximum temperature yesterday: 79 °F (at 1:56 pm)
Minimum temperature yesterday: 53 °F (at 11:56 pm)
Average temperature yesterday: 70 °F

High & Low Weather Summary for the Past Weeks

 TemperatureHumidityPressure
High83 °F (Oct 22, 2:56 pm)97% (Oct 19, 10:04 am)30.35 "Hg (Oct 19, 10:04 am)
Low38 °F (Oct 17, 6:56 am)21% (Oct 16, 3:56 pm)29.72 "Hg (Oct 12, 3:56 pm)
Average63 °F72%30.06 "Hg
* Reported Oct 9 9:56 pm — Oct 24 9:56 pm, Louisville Convention Historical Marker. Weather by CustomWeather, © 2020

Note: Actual official high and low records may vary slightly from our data, if they occured in-between our weather recording intervals... More about our weather records

Louisville Convention Historical Marker Weather History for the Previous 24 Hours

Scroll right to see more
 ConditionsComfort  
Time TempWeatherWind HumidityBarometerVisibility
9:56 pm
Sat, Oct 24
52 °FMostly cloudy.9 mph64%30.09 "Hg10 mi
8:56 pm53 °FLight rain. Overcast.7 mph64%30.10 "Hg10 mi
7:56 pm54 °FOvercast.10 mph59%30.09 "Hg10 mi
6:56 pm55 °FPassing clouds.9 mph57%30.08 "Hg10 mi
5:56 pm56 °FPartly sunny.9 mph55%30.07 "Hg10 mi
4:56 pm57 °FPartly sunny.6 mph51%30.08 "Hg10 mi
3:56 pm57 °FPartly sunny.5 mph51%30.09 "Hg10 mi
2:56 pm56 °FMostly cloudy.12 mph51%30.11 "Hg10 mi
1:56 pm54 °FPartly sunny.7 mph55%30.14 "Hg10 mi
1:30 pm54 °FPartly sunny.8 mph57%30.15 "Hg10 mi
12:56 pm52 °FPartly sunny.10 mph57%30.17 "Hg10 mi
11:56 am50 °FPartly sunny.10 mph66%30.18 "Hg10 mi
10:56 am49 °FMostly cloudy.12 mph71%30.19 "Hg10 mi
10:41 am49 °FMore clouds than sun.12 mph74%30.20 "Hg10 mi
9:56 am48 °FMostly cloudy.10 mph77%30.20 "Hg10 mi
8:56 am48 °FMostly cloudy.9 mph77%30.19 "Hg10 mi
7:56 am48 °FOvercast.10 mph77%30.19 "Hg10 mi
6:56 am49 °FOvercast.12 mph71%30.18 "Hg10 mi
5:56 am49 °FOvercast.17 mph74%30.16 "Hg10 mi
5:30 am49 °FOvercast.13 mph77%30.16 "Hg10 mi
4:56 am50 °FOvercast.13 mph80%30.15 "Hg10 mi
3:56 am50 °FOvercast.13 mph80%30.16 "Hg10 mi
2:56 am50 °FOvercast.12 mph83%30.15 "Hg10 mi
1:56 am50 °FMostly cloudy.16 mph83%30.14 "Hg10 mi
12:56 am52 °FMostly cloudy.14 mph86%30.13 "Hg10 mi
11:56 pm
Fri, Oct 23
53 °FMostly cloudy.15 mph86%30.10 "Hg10 mi
Weather by CustomWeather, © 2020

See weather overview